Location: Poprad
(49.0500°N, 20.3000°E)
Time: 21:17:50
(UTC+02:00)

CUBESAT XI-V - Visible Passes

Search period start: 22 April 2024 00:00
Search period end: 02 May 2024 00:00
Orbit: 658 x 681 km, 98.2° (Epoch: 21 April)

Date Brightness Start Highest point End Pass type
(mag) Time Alt. Az. Time Alt. Az. Time Alt. Az.
22 Apr ? 02:00:13 39° ESE 02:01:16 46° ENE 02:05:41 10° N visible
22 Apr ? 03:38:24 23° W 03:38:33 24° W 03:42:17 10° NW visible
23 Apr ? 00:54:55 10° E 00:57:20 14° NE 00:59:45 10° NNE visible
23 Apr ? 02:33:01 64° SSE 02:33:45 90° ESE 02:38:23 10° NNW visible
23 Apr ? 04:11:12 12° W 04:11:30 12° W 04:13:16 10° WNW visible
24 Apr ? 01:27:39 19° E 01:29:31 25° ENE 01:33:16 10° N visible
24 Apr ? 03:05:49 43° WSW 03:06:22 45° W 03:10:49 10° NNW visible
25 Apr ? 02:00:25 35° ESE 02:01:50 46° ENE 02:06:15 10° N visible
25 Apr ? 03:38:36 23° WSW 03:39:08 23° W 03:42:50 10° NW visible
26 Apr ? 00:55:26 10° E 00:57:52 14° ENE 01:00:17 10° NNE visible
26 Apr ? 02:33:12 53° SSE 02:34:17 90° W 02:38:55 10° NNW visible
26 Apr ? 04:11:22 12° W 04:12:02 12° W 04:13:44 10° WNW visible
27 Apr ? 01:27:46 18° ESE 01:30:00 25° ENE 01:33:45 10° N visible
27 Apr ? 03:05:57 40° SW 03:06:51 45° W 03:11:17 10° NNW visible
28 Apr ? 02:00:31 31° ESE 02:02:17 46° ENE 02:06:41 10° N visible
28 Apr ? 03:38:42 22° WSW 03:39:34 23° W 03:43:15 10° NW visible
29 Apr ? 00:55:50 10° E 00:58:16 14° ENE 01:00:41 10° NNE visible
29 Apr ? 02:33:15 45° SSE 02:34:41 89° W 02:39:19 10° NNW visible
29 Apr ? 04:11:26 11° W 04:12:26 12° W 04:14:05 10° WNW visible
30 Apr ? 01:27:48 16° ESE 01:30:22 25° ENE 01:34:07 10° N visible
30 Apr ? 03:06:00 36° SW 03:07:14 45° W 03:11:39 10° NNW visible
01 May ? 02:00:31 27° SE 02:02:36 47° ENE 02:07:00 10° N visible
01 May ? 03:38:42 21° WSW 03:39:54 23° W 03:43:34 10° NW visible
